EW0235 Weather Reports


time (UTC)temp
F
wind
direction
speed
knots
gust
knots
rain 1hr
in
rain 24hr
in
rain mn
in
humidity
%
barometer
mb
20260504081531 46 81 0.0 0.0 0.00 0.00 0.00 85 1017.6
20260504050007 51 81 0.0 0.0 0.00 0.00 0.00 74 1018.4
20260504044512 51 81 0.0 0.0 0.00 0.00 0.00 73 1018.1
20260504043006 52 81 0.0 0.0 0.00 0.00 0.00 73 1018.4
20260504041617 52 81 0.0 0.0 0.00 0.00 0.00 71 1018.4
20260504041503 52 81 0.0 0.0 0.00 0.00 0.00 71 1018.4
20260504040059 52 81 0.0 0.0 0.00 0.00 0.00 70 1018.4
20260504034616 53 81 0.0 0.0 0.00 0.00 0.00 70 1018.5
20260504033058 53 81 0.0 0.0 0.00 0.00 0.00 68 1018.5
20260504031557 54 81 0.0 0.0 0.00 0.00 0.00 68 1018.3
20260504030059 54 81 0.0 0.0 0.00 0.00 0.00 68 1018.4
20260504024557 55 81 0.0 0.0 0.00 0.00 0.00 67 1018.3
20260504023056 55 81 0.0 0.0 0.00 0.00 0.00 64 1018.2
20260504021556 56 81 0.0 0.0 0.00 0.00 0.00 64 1018.0
20260504020119 57 81 0.0 0.0 0.00 0.00 0.00 62 1017.9
20260504014600 57 81 0.0 0.0 0.00 0.00 0.00 61 1017.8
20260504013115 58 81 0.0 0.0 0.00 0.00 0.00 58 1017.6
20260504011555 59 81 0.0 0.0 0.00 0.00 0.00 57 1017.3
20260504010055 60 81 0.0 0.0 0.00 0.00 0.00 55 1017.2
20260504004553 61 81 0.0 0.0 0.00 0.00 0.00 53 1017.0
20260504003053 62 81 0.0 0.0 0.00 0.00 0.00 50 1016.9
20260504001554 63 81 0.0 0.0 0.00 0.00 0.00 48 1016.9
20260504000053 64 43 0.0 0.0 0.00 0.00 0.00 46 1016.9
20260503234552 64 43 0.0 0.0 0.00 0.00 0.00 45 1016.8
20260503233051 65 43 0.0 0.0 0.00 0.00 0.00 45 1016.7
20260503231550 65 43 0.0 0.0 0.00 0.00 0.00 44 1016.8
20260503230053 66 43 0.0 0.0 0.00 0.00 0.00 41 1016.9
20260503224558 66 43 0.0 0.0 0.00 0.00 0.00 40 1017.0
20260503223048 66 43 0.0 0.0 0.00 0.00 0.00 41 1016.9
20260503221558 66 43 0.0 0.0 0.00 0.00 0.00 40 1017.0
20260503220047 67 46 0.0 0.0 0.00 0.00 0.00 40 1017.0
20260503214546 67 45 0.0 0.0 0.00 0.00 0.00 40 1017.1
20260503213047 67 54 0.0 0.0 0.00 0.00 0.00 41 1017.2
20260503211549 67 54 0.0 0.0 0.00 0.00 0.00 39 1017.2
20260503210045 67 49 0.0 0.0 0.00 0.00 0.00 41 1017.3
20260503204557 67 26 0.0 0.0 0.00 0.00 0.00 39 1017.4
20260503203046 67 26 0.0 0.0 0.00 0.00 0.00 42 1017.7
20260503201544 67 303 0.0 0.0 0.00 0.00 0.00 39 1017.9
20260503200044 68 315 0.0 0.0 0.00 0.00 0.00 40 1018.2
20260503194546 68 314 0.0 0.0 0.00 0.00 0.00 42 1018.4
20260503193045 67 314 0.0 0.0 0.00 0.00 0.00 40 1018.7
20260503191604 66 18 0.0 0.0 0.00 0.00 0.00 39 1019.0
20260503190038 66 34 0.0 0.0 0.00 0.00 0.00 41 1019.1
20260503184538 66 34 0.0 0.0 0.00 0.00 0.00 43 1019.3
20260503183036 67 33 0.0 0.0 0.00 0.00 0.00 44 1019.5
20260503181546 67 40 0.0 0.0 0.00 0.00 0.00 44 1019.6
20260503180038 66 39 0.0 0.0 0.00 0.00 0.00 46 1019.6
20260503174543 66 39 0.0 0.0 0.00 0.00 0.00 44 1019.7
20260503173031 65 22 0.0 0.0 0.00 0.00 0.00 46 1019.8
20260503171531 65 22 0.0 0.0 0.00 0.00 0.00 45 1020.0